Terug naar catalogus

STARLINK-37869

ActiefCommunicatieSSO
NORAD 69483·PAYLOAD·🇺🇸 United States

Gelanceerd Jun 11, 2026 vanaf Vandenberg Space Force Base

Loading…

Volgende Passages (komende 24 uur)

TLE

VersSource: CelesTrak SupGP

Epoch: Sep 14, 2026, 21:41 UTC

1 69483C 26131F   26257.90395833  .00037620  00000+0  11680-2 0  2577
2 69483  97.2832 278.8150 0001221  92.8781  42.3457 15.33415182    14

Volg STARLINK-37869 in realtime met AllMySat

Download on the App Store